| time (UTC) | temp F | wind direction | speed MPH | gust MPH | rain 1hr in | rain 24hr in | rain mn in | humidity % | barometer mb |
| 20260906121505 | 0 | 0.0 | 0.0 | 0.00 | 0.00 | 0.00 | 1015.3 | ||
| 20260906114555 | 0 | 0.0 | 0.0 | 0.00 | 0.00 | 0.00 | 1015.0 | ||
| 20260906113051 | 0 | 0.0 | 0.0 | 0.00 | 0.00 | 0.00 | 1014.7 | ||
| 20260906111550 | 0 | 0.0 | 0.0 | 0.00 | 0.00 | 0.00 | 1014.5 | ||
| 20260906110051 | 0 | 0.0 | 0.0 | 0.00 | 0.00 | 0.00 | 1014.6 | ||
| 20260906104537 | 0 | 0.0 | 0.0 | 0.00 | 0.00 | 0.00 | 1014.4 | ||
| 20260906103038 | 0 | 0.0 | 0.0 | 0.00 | 0.00 | 0.00 | 1014.2 | ||
| 20260906101531 | 0 | 0.0 | 0.0 | 0.00 | 0.00 | 0.00 | 1014.3 | ||
| 20260906100029 | 0 | 0.0 | 0.0 | 0.00 | 0.00 | 0.00 | 1014.4 | ||
| 20260906094520 | 0 | 0.0 | 0.0 | 0.00 | 0.00 | 0.00 | 1014.2 | ||
| 20260906093032 | 0 | 0.0 | 0.0 | 0.00 | 0.00 | 0.00 | 1014.3 | ||
| 20260906091512 | 69 | 65 | 0.0 | 1.0 | 0.00 | 0.00 | 0.00 | 1 | 1014.2 |
| 20260906090022 | 69 | 67 | 0.0 | 1.0 | 0.00 | 0.00 | 0.00 | 1 | 1014.2 |
| 20260906084505 | 69 | 58 | 0.0 | 1.0 | 0.00 | 0.00 | 0.00 | 1 | 1014.1 |
| 20260906083058 | 70 | 58 | 0.0 | 1.0 | 0.00 | 0.00 | 0.00 | 1 | 1014.0 |
| 20260906081557 | 70 | 58 | 0.0 | 1.0 | 0.00 | 0.00 | 0.00 | 1 | 1014.1 |
| 20260906080057 | 70 | 58 | 0.0 | 2.0 | 0.00 | 0.00 | 0.00 | 1 | 1014.3 |
| 20260906074551 | 70 | 47 | 0.0 | 0.0 | 0.00 | 0.00 | 0.00 | 1 | 1014.4 |
| 20260906073056 | 71 | 49 | 0.0 | 0.0 | 0.00 | 0.00 | 0.00 | 1 | 1014.3 |
| 20260906071536 | 71 | 49 | 0.0 | 0.0 | 0.00 | 0.00 | 0.00 | 1 | 1014.4 |
| 20260906070036 | 71 | 49 | 0.0 | 0.0 | 0.00 | 0.00 | 0.00 | 1 | 1014.4 |
| 20260906064531 | 71 | 49 | 0.0 | 0.0 | 0.00 | 0.00 | 0.00 | 1 | 1014.3 |
| 20260906063039 | 71 | 46 | 0.0 | 2.0 | 0.00 | 0.00 | 0.00 | 9 | 1014.4 |
| 20260906061521 | 71 | 65 | 0.0 | 1.0 | 0.00 | 0.00 | 0.00 | 14 | 1014.3 |
| 20260906060020 | 72 | 72 | 0.0 | 3.0 | 0.00 | 0.00 | 0.00 | 17 | 1014.2 |
| 20260906054517 | 72 | 63 | 0.0 | 2.0 | 0.00 | 0.00 | 0.00 | 20 | 1014.2 |
| 20260906053017 | 72 | 56 | 0.0 | 4.0 | 0.00 | 0.00 | 0.00 | 22 | 1014.0 |
| 20260906051520 | 72 | 49 | 0.0 | 1.0 | 0.00 | 0.00 | 0.00 | 23 | 1013.9 |
| 20260906050011 | 72 | 62 | 0.0 | 2.0 | 0.00 | 0.00 | 0.00 | 24 | 1013.9 |
| 20260906044507 | 72 | 38 | 0.0 | 3.0 | 0.00 | 0.00 | 0.00 | 26 | 1013.7 |
| 20260906043002 | 72 | 53 | 0.0 | 2.0 | 0.00 | 0.00 | 0.00 | 30 | 1013.5 |
| 20260906041603 | 72 | 40 | 0.0 | 1.0 | 0.00 | 0.00 | 0.00 | 30 | 1013.3 |
| 20260906040054 | 73 | 38 | 0.0 | 1.0 | 0.00 | 0.00 | 0.00 | 37 | 1013.0 |
| 20260906034607 | 73 | 51 | 0.0 | 2.0 | 0.00 | 0.00 | 0.00 | 43 | 1013.0 |
| 20260906033045 | 73 | 60 | 0.0 | 4.0 | 0.00 | 0.00 | 0.00 | 47 | 1012.8 |
| 20260906031546 | 73 | 82 | 0.0 | 3.0 | 0.00 | 0.00 | 0.00 | 48 | 1012.9 |
| 20260906030035 | 73 | 62 | 0.0 | 2.0 | 0.00 | 0.00 | 0.00 | 48 | 1012.8 |
| 20260906024531 | 73 | 100 | 0.0 | 6.0 | 0.00 | 0.00 | 0.00 | 48 | 1012.9 |
| 20260906023026 | 73 | 93 | 1.0 | 6.0 | 0.00 | 0.00 | 0.00 | 44 | 1012.9 |
| 20260906021522 | 73 | 51 | 0.0 | 10.0 | 0.00 | 0.00 | 0.00 | 43 | 1012.8 |
| 20260906020020 | 73 | 96 | 0.0 | 4.0 | 0.00 | 0.00 | 0.00 | 44 | 1012.7 |
| 20260906014517 | 73 | 70 | 1.0 | 11.0 | 0.00 | 0.00 | 0.00 | 47 | 1012.9 |
| 20260906013012 | 73 | 130 | 0.0 | 10.0 | 0.00 | 0.00 | 0.00 | 39 | 1012.8 |
| 20260906011504 | 73 | 74 | 0.0 | 4.0 | 0.00 | 0.00 | 0.00 | 44 | 1012.8 |
| 20260906010059 | 73 | 78 | 0.0 | 5.0 | 0.00 | 0.00 | 0.00 | 46 | 1012.8 |
| 20260906004555 | 73 | 58 | 0.0 | 5.0 | 0.00 | 0.00 | 0.00 | 39 | 1012.6 |
| 20260906003050 | 73 | 71 | 1.0 | 9.0 | 0.00 | 0.00 | 0.00 | 39 | 1012.4 |
| 20260906001547 | 73 | 67 | 1.0 | 11.0 | 0.00 | 0.00 | 0.00 | 41 | 1012.2 |
| 20260906000046 | 75 | 55 | 0.0 | 4.0 | 0.00 | 0.00 | 0.00 | 49 | 1011.9 |
| 20260905234537 | 76 | 56 | 0.0 | 6.0 | 0.00 | 0.00 | 0.00 | 57 | 1011.9 |
| 20260905233040 | 77 | 64 | 2.0 | 6.0 | 0.00 | 0.00 | 0.00 | 63 | 1011.7 |
| 20260905231530 | 78 | 77 | 1.0 | 5.0 | 0.00 | 0.00 | 0.00 | 68 | 1011.6 |
| 20260905230025 | 79 | 103 | 1.0 | 10.0 | 0.00 | 0.00 | 0.00 | 71 | 1011.4 |
| 20260905224518 | 80 | 49 | 1.0 | 7.0 | 0.00 | 0.00 | 0.00 | 72 | 1011.1 |
| 20260905223014 | 81 | 34 | 0.0 | 7.0 | 0.00 | 0.00 | 0.00 | 73 | 1011.0 |
| 20260905221509 | 82 | 65 | 2.0 | 7.0 | 0.00 | 0.00 | 0.00 | 71 | 1010.8 |
| 20260905220005 | 82 | 53 | 1.0 | 6.0 | 0.00 | 0.00 | 0.00 | 72 | 1010.9 |
| 20260905214605 | 82 | 65 | 0.0 | 6.0 | 0.00 | 0.00 | 0.00 | 72 | 1011.1 |
| 20260905213056 | 83 | 56 | 1.0 | 3.0 | 0.00 | 0.00 | 0.00 | 71 | 1010.9 |
| 20260905211552 | 82 | 63 | 0.0 | 4.0 | 0.00 | 0.00 | 0.00 | 72 | 1011.0 |
| 20260905210057 | 82 | 75 | 0.0 | 5.0 | 0.00 | 0.00 | 0.00 | 72 | 1011.2 |
| 20260905204552 | 81 | 54 | 0.0 | 5.0 | 0.00 | 0.00 | 0.00 | 70 | 1011.2 |
| 20260905203057 | 80 | 46 | 0.0 | 5.0 | 0.00 | 0.00 | 0.00 | 67 | 1011.3 |
| 20260905201536 | 79 | 54 | 1.0 | 7.0 | 0.00 | 0.00 | 0.00 | 67 | 1011.4 |
| 20260905200031 | 80 | 72 | 2.0 | 5.0 | 0.00 | 0.00 | 0.00 | 71 | 1011.5 |
| 20260905194526 | 81 | 75 | 1.0 | 7.0 | 0.00 | 0.00 | 0.00 | 70 | 1011.2 |
| 20260905193022 | 81 | 13 | 1.0 | 4.0 | 0.00 | 0.00 | 0.00 | 71 | 1011.3 |
| 20260905191521 | 81 | 70 | 2.0 | 10.0 | 0.00 | 0.00 | 0.00 | 72 | 1011.5 |
| 20260905190018 | 82 | 72 | 0.0 | 6.0 | 0.00 | 0.00 | 0.00 | 71 | 1011.4 |
| 20260905184512 | 83 | 72 | 2.0 | 7.0 | 0.00 | 0.00 | 0.00 | 72 | 1011.3 |
| 20260905183005 | 82 | 60 | 2.0 | 6.0 | 0.00 | 0.00 | 0.00 | 72 | 1011.6 |
| 20260905181600 | 82 | 70 | 2.0 | 6.0 | 0.00 | 0.00 | 0.00 | 72 | 1011.4 |
| 20260905180056 | 83 | 77 | 0.0 | 8.0 | 0.00 | 0.00 | 0.00 | 72 | 1011.3 |
| 20260905174552 | 83 | 56 | 2.0 | 6.0 | 0.00 | 0.00 | 0.00 | 72 | 1011.3 |
| 20260905173045 | 82 | 65 | 2.0 | 7.0 | 0.00 | 0.00 | 0.00 | 71 | 1011.3 |
| 20260905171555 | 83 | 88 | 0.0 | 5.0 | 0.00 | 0.00 | 0.00 | 72 | 1011.3 |
| 20260905170037 | 83 | 56 | 3.0 | 5.0 | 0.00 | 0.00 | 0.00 | 71 | 1011.3 |
| 20260905164537 | 83 | 62 | 0.0 | 4.0 | 0.00 | 0.00 | 0.00 | 71 | 1011.5 |
| 20260905163032 | 82 | 77 | 2.0 | 6.0 | 0.00 | 0.00 | 0.00 | 71 | 1011.6 |
| 20260905161523 | 81 | 56 | 2.0 | 8.0 | 0.00 | 0.00 | 0.00 | 68 | 1011.5 |
| 20260905160018 | 81 | 53 | 2.0 | 5.0 | 0.00 | 0.00 | 0.00 | 64 | 1011.5 |
| 20260905154513 | 80 | 73 | 1.0 | 5.0 | 0.00 | 0.00 | 0.00 | 61 | 1011.4 |
| 20260905153010 | 80 | 65 | 0.0 | 5.0 | 0.00 | 0.00 | 0.00 | 56 | 1011.5 |
| 20260905151504 | 80 | 65 | 1.0 | 5.0 | 0.00 | 0.00 | 0.00 | 58 | 1011.2 |
| 20260905150107 | 79 | 34 | 0.0 | 4.0 | 0.00 | 0.00 | 0.00 | 49 | 1011.2 |
| 20260905144556 | 79 | 44 | 0.0 | 5.0 | 0.00 | 0.00 | 0.00 | 45 | 1011.1 |
| 20260905143101 | 77 | 49 | 0.0 | 4.0 | 0.00 | 0.00 | 0.00 | 21 | 1011.1 |
| 20260905141547 | 75 | 60 | 1.0 | 5.0 | 0.00 | 0.00 | 0.00 | 6 | 1011.1 |
| 20260905140043 | 75 | 65 | 1.0 | 4.0 | 0.00 | 0.00 | 0.00 | 4 | 1010.8 |
| 20260905134537 | 76 | 67 | 0.0 | 7.0 | 0.00 | 0.00 | 0.00 | 3 | 1010.8 |
| 20260905133032 | 76 | 59 | 0.0 | 2.0 | 0.00 | 0.00 | 0.00 | 1 | 1010.9 |
| 20260905131536 | 0 | 0.0 | 0.0 | 0.00 | 0.00 | 0.00 | 1011.1 | ||
| 20260905130026 | 0 | 0.0 | 0.0 | 0.00 | 0.00 | 0.00 | 1010.4 | ||
| 20260905124520 | 0 | 0.0 | 0.0 | 0.00 | 0.00 | 0.00 | 1010.3 | ||
| 20260905123014 | 0 | 0.0 | 0.0 | 0.00 | 0.00 | 0.00 | 1009.9 |